Location: Marcé
(47.5801°N, 0.3280°W)
Time: 08:40:09
(UTC+01:00)

Vanguard 1 - Pass Details

Date: 02 December 2021
Orbit: 652 x 3830 km, 34.2° (Epoch: 16 January)

Event Time Altitude Azimuth Distance (km) Brightness Sun altitude
Exits shadow 01:24:15 23° 103° (ESE) 5,309 13.6 -63.5°
Drops below altitude 10° 01:29:34 10° 92° (E) 5,996 14.1 -63.2°
Sets 01:33:48 0° 87° (E) 6,666 14.5 -62.9°
